Lid_Strength_Index
9 8 8 8 7 6 5 4 4 4 3 3 2 2 2 1 1 1 2 2 2 2
11 10 10 10 9 8 7 5 5 6 6 6 5 4 3 2 1 3 3 4 5 4
10 11 10 10 11 11 9 8 7 8 8 7 7 6 5 4 4 4 5 5 6 7
11 11 12 11 11 11 10 9 9 8 8 8 8 8 7 7 6 7 8 8 8 9
10 11 12 12 12 11 11 10 10 9 9 9 9 8 8 8 8 8 9 8 9 9
12 12 12 13 12 12 12 11 10 10 10 10 9 10 9 9 9 9 9 9 10 9
13 13 13 13 12 13 13 13 12 12 11 10 9 9 9 9 9 10 9 9 10 11
13 13 13 13 13 12 13 13 13 13 12 11 11 10 10 10 10 11 11 11 11 11
13 13 13 14 14 13 13 14 14 14 13 13 11 11 10 10 11 11 11 12 11 11
14 14 14 14 15 15 15 15 14 14 13 13 13 11 11 11 12 13 13 13 13 13
15 15 15 15 16 16 16 16 16 15 15 14 11 10 11 12 13 14 14 14 14 15
15 15 16 16 17 16 17 16 16 16 16 16 14 10 11 12 13 14 14 13 13 13
16 16 17 17 17 17 17 16 16 16 16 13 16 11 10 12 13 14 13 13 13 10
16 16 17 18 18 18 18 17 17 16 16 16 14 13 10 10 13 13 14 14 14 14